Home > Weather > Katowice > Past weeks

Flag for Poland Weather for the Past 2 Weeks in Katowice, Poland

Now
36 °F

Fog.


Feels Like: 32 °F
Forecast: 38 / 44 °F
Wind: 5 mph from South

Location: Katowice Airport

Current Time: Feb 14, 2016 at 1:35:01 AM

Latest Report: Feb 14, 2016 at 12:30 AM


Visibility: 1 mi

Pressure: 29.30 "Hg

Humidity: 100%

Dew point: 36 °F

Location of KatowiceLocation

Historic Weather in Katowice — Graph

°F

Katowice Temperature Yesterday

Maximum temperature yesterday: 39 °F (at 2:00 PM)
Minimum temperature yesterday: 32 °F (at 1:00 AM)
Average temperature yesterday: 36 °F

High & Low Weather Summary for the Past Weeks

 TemperatureHumidityPressure
High54 °F (Jan 30, 2:00 PM)100% (Jan 31, 6:30 AM)30.27 "Hg (Jan 31, 6:30 AM)
Low30 °F (Feb 4, 12:30 AM)44% (Jan 30, 2:30 PM)29.24 "Hg (Feb 10, 3:30 AM)
Average40 °F80%29.78 "Hg
* Reported Midnight between Jan 29 and Jan 30 — Midnight between Feb 13 and Feb 14, Katowice, Weather by CustomWeather, © 2016

Note: Actual official high and low records may vary slightly from our data, if they occured in-between our weather recording intervals... More about our weather records

Advertising

Katowice Weather History for the Previous 24 Hours

 ConditionsComfort  
Time TempWeatherWind HumidityBarometerVisibility
12:00 AM
Sun, Feb 14
36 °FFog.5 mph100%29.30 "Hg1 mi
11:30 PM
Sat, Feb 13
37 °FFog.3 mph93%29.33 "Hg1 mi
11:00 PM37 °FFog.3 mph100%29.33 "Hg1 mi
10:30 PM37 °FFog.6 mph93%29.33 "Hg1 mi
10:00 PM37 °FFog.1 mph93%29.33 "Hg1 mi
9:30 PM37 °FFog.2 mph93%29.33 "Hg1 mi
9:00 PM37 °FFog.5 mph93%29.33 "Hg1 mi
8:30 PM37 °FFog.2 mph93%29.33 "Hg1 mi
8:00 PM37 °FFog.2 mph93%29.33 "Hg1 mi
7:30 PM37 °FDrizzle. Fog.2 mph93%29.36 "Hg1 mi
7:00 PM37 °FDrizzle. Fog.1 mph93%29.36 "Hg1 mi
6:30 PM37 °FDrizzle. Fog.3 mph93%29.36 "Hg1 mi
6:00 PM37 °FFog.1 mph93%29.36 "Hg3 mi
5:30 PM37 °FFog.1 mph100%29.36 "Hg2 mi
5:00 PM37 °FFog.3 mph100%29.33 "Hg2 mi
4:30 PM37 °FDrizzle. Fog.5 mph100%29.33 "Hg1 mi
4:00 PM37 °FDrizzle. Fog.3 mph100%29.33 "Hg2 mi
3:30 PM37 °FLight rain. Fog.5 mph100%29.36 "Hg2 mi
3:00 PM37 °FLight rain. Fog.5 mph100%29.36 "Hg2 mi
2:30 PM39 °FLight rain. Broken clouds.3 mph93%29.36 "Hg4 mi
2:00 PM39 °FLight rain. Broken clouds.3 mph87%29.36 "Hg4 mi
1:30 PM37 °FLight rain. Fog.3 mph93%29.36 "Hg3 mi
1:00 PM37 °FLight rain. Fog.3 mph100%29.39 "Hg2 mi
12:30 PM37 °FLight rain. Fog.3 mph93%29.39 "Hg2 mi
12:00 PM37 °FFog.5 mph93%29.39 "Hg3 mi
11:30 AM37 °FPartly sunny.6 mph93%29.39 "Hg4 mi
11:00 AM37 °FPartly sunny.3 mph93%29.42 "Hg4 mi
10:30 AM36 °FBroken clouds.2 mph93%29.42 "HgN/A
10:00 AM36 °FLight rain. Scattered clouds.3 mph93%29.42 "HgN/A
9:30 AM36 °FLight rain. Partly sunny.3 mph93%29.42 "Hg4 mi
9:00 AM34 °FLight rain. Fog.5 mph100%29.42 "Hg2 mi
8:30 AM34 °FLight rain. Cloudy.3 mph93%29.42 "Hg1 mi
8:00 AM34 °FLight rain. Broken clouds.5 mph93%29.42 "Hg2 mi
7:30 AM32 °FLight rain. Ice fog.3 mph100%29.45 "Hg2 mi
7:00 AM32 °FLight rain. Ice fog.3 mph100%29.45 "Hg2 mi
6:30 AM32 °FLight rain. Ice fog.6 mph100%29.45 "Hg2 mi
6:00 AM32 °FLight rain. Ice fog.6 mph100%29.45 "Hg2 mi
5:30 AM32 °FIce fog.5 mph100%29.45 "Hg2 mi
5:00 AM32 °FIce fog.5 mph100%29.45 "Hg2 mi
4:30 AM34 °FFog.5 mph93%29.47 "Hg2 mi
4:00 AM32 °FIce fog.6 mph100%29.47 "Hg2 mi
3:30 AM32 °FIce fog.7 mph100%29.47 "Hg2 mi
3:00 AM34 °FLight rain. Fog.6 mph93%29.50 "Hg2 mi
2:30 AM32 °FLight rain. Ice fog.8 mph100%29.50 "Hg2 mi
2:00 AM32 °FLight rain. Ice fog.7 mph100%29.53 "Hg3 mi
1:00 AM32 °FLight snow. Ice fog.10 mph100%29.53 "Hg2 mi
Weather by CustomWeather, © 2016

See weather overviewHow to use our weather pages